Regional Weather Roundup
Issued by NWS Bismarck, ND

Home | Current Version | Previous Version | Text Only | Print | Product List | Glossary On
Versions: 1 2 3 4 5 6 7 8 9 10 11 12 13 14 15 16 17 18 19 20 21 22 23 24 25 26 27 28 29 30 31 32 33 34 35 36 37 38 39 40 41 42 43 44 45 46 47 48 49 50
000
ASUS43 KBIS 042210
RWRBIS

NWR BROADCAST TEXT
NATIONAL WEATHER SERVICE BISMARCK ND
500 PM CDT WED MAY 04 2016

NOTE: "FAIR" INDICATES FEW OR NO CLOUDS BELOW 12,000 FEET WITH NO
SIGNIFICANT WEATHER AND/OR OBSTRUCTIONS TO VISIBILITY.


CITY           SKY/WX    TMP DP  RH WIND       PRES   REMARKS
WILLISTON      MOSUNNY   85  37  18 S16G25    29.91F
MINOT          SUNNY     88  37  16 S13       29.91F
MINOT AFB      SUNNY     84  39  20 W9        29.89F
BISMARCK       SUNNY     79  41  25 SW5       29.99F
DICKINSON      SUNNY     79  36  21 SW9       29.96F
GARRISON         N/A     82  42  24 SW9       29.95F
HETTINGER ARPT SUNNY     77  41  27 S12       30.02F
JAMESTOWN      SUNNY     71  32  23 SW3       29.99F
BEACH          FAIR      81  34  18 SW18G29   29.99F
CARRINGTON     FAIR      75  32  20 VRB3      30.00F
HAZEN          FAIR      81  39  22 S9        29.97F
LINTON         FAIR      77  45  31 S3        30.03F
MANDAN         FAIR      77  41  27 SE5       30.00F
OAKES            N/A    N/A N/A N/A MISG        N/A
RUGBY          FAIR      79  37  22 SW10      29.94F
STANLEY        FAIR      82  37  20 SW16G23   29.95F
TIOGA          FAIR      82  34  17 SW17      29.97F
WATFORD CITY   FAIR      82  37  20 S12G20    29.93F
$$

CITY           SKY/WX    TMP DP  RH WIND       PRES   REMARKS
GRAND FORKS    MOSUNNY   71  30  21 W6        29.98F
GRAND FORKS AF SUNNY     70  25  18 NE6       29.99F
DEVILS LAKE    MOSUNNY   70  35  27 SE9       29.98F
FARGO          SUNNY     71  29  21 NW7       29.98F
CANDO          FAIR      77  36  22 S12G20    29.97F
CAVALIER       FAIR      72  32  23 SE6       29.96F
GRAFTON        FAIR      70  32  24 S8        29.99F
GWINNER        FAIR      70  30  23 CALM      30.01F
LANGDON        FAIR      73  36  25 SW9       29.97S
ROLLA            N/A     77  36  22 SW17      29.95F
WALHALLA       FAIR      73  34  23 W8        29.94F
$$

CITY           SKY/WX    TMP DP  RH WIND       PRES   REMARKS
ABERDEEN       SUNNY     73  31  21 N5        30.02F
MOBRIDGE       SUNNY     76  42  29 SE8       30.01F
BUFFALO          N/A     79  36  21 S18       29.96F
RAPID CITY     SUNNY     76  43  30 S14       30.06F
GLASGOW        SUNNY     85  39  19 S13       29.86F
SIDNEY         SUNNY     84  37  18 S15       29.91F
WOLF POINT     SUNNY     86  41  20 SW12      29.87F
GLENDIVE       SUNNY     82  39  21 SW13      29.95F
MILES CITY     SUNNY     84  35  17 S9G18     29.92F
BAKER          SUNNY     80  35  19 S16       29.99F
$$

CITY           SKY/WX    TMP DP  RH WIND       PRES   REMARKS
BILLINGS       MOSUNNY   81  24  12 SW7       29.96F
GREAT FALLS    SUNNY     80  30  16 W18G26    29.91F
REGINA         MOSUNNY   88  34  14 SW14G21   29.80F
ESTEVAN        PTSUNNY   86  37  17 SW17G26   29.88F
$$




USA.gov is the U.S. government's official web portal to all federal, state and local government web resources and services.